Voltar ao catálogo

STARLINK-32698

AtivoComunicaçõesVLEO
NORAD 62312·PAYLOAD·🇺🇸 United States

Lançado Dec 13, 2024 de Vandenberg Space Force Base

Loading…

Próximas Passagens (próximas 24 horas)

TLE

AtualizadoSource: CelesTrak SupGP

Época: Sep 15, 2026, 03:31 UTC

1 62312C 24239M   26258.14701389  .00034989  00000+0  10341-2 0  2581
2 62312  53.1592  30.5448 0001178  90.1174  71.7790 15.34363903    13

Acompanhe STARLINK-32698 em tempo real com AllMySat

Download on the App Store